Погода в Брагине

Погода в Брагине : погода сейчас, прогноз погоды и архив. Всё, что Вы хотите узнать о погоде в Брагине!

Поиск расширенной информации на нашем сайте:

Другие новости

Новости СМИ2

Главная страница сайта

Новости сайта

03.07.2017

Напоминаем, что на нашем специализированном сайте Метеоцентр.Азия вы можете получить высокодетализированные автоматические прогнозы погоды по пунктам России, СНГ и мира в авиационном формате (включающие направление и скорость ветра, видимость, явления погоды, количество и форму облачности, нижнюю и верхнюю границу облачности).


Погода в Брагине - сегодня

Время (UTC), дата Ветер
(°,м/с) 
Видим.   Явления Облачность Т
(°С)
Тd
(°С)
f(%) Тe
(°С)
Pmin
(гПа)
dP
(гПа)
Po
(мм)
O2
(г/м3)
Тmin Tmax R s Состояние
почвы
15 12.08.18 280 (З) 30000 м    5/5 1000 м 
[Cu hum]
+26.2 +11.9 41 +30  1016  -1  752  274           
18 12.08.18 300 (СЗ) 30000 м    3/3 600 м 
[Sc diur, vesp]
+17.6 +10.5 63 +21  1016.9  0.4  752  283    +26.9       
06 13.08.18 тихо ()   30000 м    8/0 верхняя 
[Ci]
+18.8 +12.3 66 +23  1017  753  281  +9.2         
09 13.08.18 250 (З) 30000 м    5/0 верхняя 
[Ci fib]
+23.7 +8.5 38 +24  1016.2  -0.5  752  277           
12 13.08.18 270 (З) 5{10}  30000 м    5/3 1000 м верхняя 
[Cu hum|Ci fib]
+26.9 +10.8 37 +29  1014.6  -1.5  751  274           
15 13.08.18 250 (З) 30000 м    8/3 1000 м верхняя 
[Cu hum|Ci]
+26.5 +11.3 39 +29  1013.1  -1.5  750  273           
18 13.08.18 130 (ЮВ) 30000 м    8/0 верхняя 
[Ci]
+21.4 +13.1 59 +27  1012.4  -0.9  749  277    +27.3       
06 14.08.18 тихо ()   30000 м    ясно 
+21.8 +16.3 71 +33  1012.9  0.6  750  276  +12.7         
09 14.08.18 190 (Ю) 30000 м    3/0 верхняя 
[Ci fib]
+27.9 +15.7 47 +38  1012.6  750  271           
12 14.08.18 310 (СЗ) 30000 м    5/5 1000 м 
[Cu hum]
+30.2 +16.7 44 +42  1011.8  -0.6  749  268           
15 14.08.18 160 (Ю) 30000 м  гроза без осадков  6/6 630 м кучево-дожд. 
[Cb calv]
+28.5 +16.8 49 +41  1011  -0.9  749  269           
18 14.08.18 тихо ()   23000 м  {гроза}  6/6 2000 м средняя 
[Ac trans]
+22.3 +18.2 78 +37  1011.9  0.5  749  275    +31.3       
06 15.08.18 270 (З) 30000 м    3/1 1000 м верхняя 
[Cu hum|Ci fib]
+23.2 +15.8 63 +33  1012.2  0.7  749  275  +17.9         
09 15.08.18 190 (Ю) 30000 м    3/1 1000 м верхняя 
[Cu hum|Ci fib]
+28.4 +16.4 48 +40  1012  0.1  749  270           
12 15.08.18 310 (СЗ) 50000 м  гроза без осадков  6/6 660 м кучево-дожд. 
[Cb calv]
+26.6 +15.5 51 +36  1012.7  0.6  750  272           
15 15.08.18 320 (СЗ) 3{10}  30000 м  {гроза}  1/1 1000 м 
[Cu hum]
+26.8 +18.4 60 +42  1012.9  0.2  750  271           
18 15.08.18 340 (С) 30000 м  гроза без осадков  9/9 600 м кучево-дожд. 
[Cb cap]
+22.2 +17 72 +35  1014.4  1.2  751  276    +30.7       
06 16.08.18 330 (СЗ) 23000 м    9/3 2000 м средняя, верхняя 
[Ac trans|Ci]
+20.3 +17.9 86 +34  1017.2  0.6  753  278  +17.2         
09 16.08.18 280 (З) 30000 м    9/3 1000 м верхняя 
[Cu med, cong|Ci]
+24.9 +16.5 60 +36  1017.3  0.3  753  275           
12 16.08.18 280 (З) 30000 м    8/5 1000 м верхняя 
[Cu med, cong|Ci]
+26.9 +15.6 50 +37  1017.1  -0.1  753  273           
15 16.08.18 250 (З) 30000 м    8/6 960 м верхняя 
[Cu med, cong|Ci fib]
+26.9 +15.3 49 +36  1016.8  -0.3  753  273           
18 16.08.18 тихо ()   26000 м    8/6 800 м средняя 
[Sc|Ac trans]
+22.4 +16.6 70 +34  1017.9  0.9  753  277    +28.1       
06 17.08.18 070 (В) 30000 м    4/0 верхняя 
[Ci fib]
+21.1 +17.2 78 +34  1019.3  0.4  754  278  +15.6         
09 17.08.18 130 (ЮВ) 30000 м    9/4 1000 м верхняя 
[Cu med, cong|Cc]
+26.1 +15.7 53 +36  1018.9  -0.2  754  274           
12 17.08.18 140 (ЮВ) 30000 м    8/5 1000 м верхняя 
[Cu med, cong|Ci fib]
+28.6 +15.1 44 +37  1018.1  -0.6  754  272           
Время (UTC), дата Ветер
(°,м/с) 
Видим.   Явления Облачность Т
(°С)
Тd
(°С)
f(%) Тe
(°С)
Pmin
(гПа)
dP
(гПа)
Po
(мм)
O2
(г/м3)
Тmin Tmax R s Состояние
почвы

Для получения пояснительной информации подведите курсор к названию столбца.

ПОГОДА в Брагине - архив

Всё, что Вы хотите узнать о погоде в Брагине - удобно и подробно!

Выберите нужную дату (начиная с 1 января 2015* года) и нажмите кнопку "Найти".
Будут отображены архивные сводки погоды по пункту Брагин, начиная с указанной даты.


Отображать данные в формате CSV (для использования в таблицах Excel)


Внимание! Наш архив погоды предназначен исключительно для личного некоммерческого использования в познавательных целях. Если Вам необходимы официальные справки о состоянии погоды (для производственных, юридических, коммерческих и т.п. целей), обращайтесь в органы Росгидромета.

*Примечание: данная дата относится к архиву по метеостанциям СССР (Россия, СНГ, Балтия).
Архив по метеостанциям Зарубежной Европы и Азии (кроме Китая) хранится 10 дней, по другим регионам земного шара (Китай, Африка, Америка, Австралия, Океания) - 1 день.

Брагин - район местоположения метеостанции


Название, широта, долгота, высота метеостанции:
Брагин 51.8°ш. 30.3°д. 116 м над ур. моря [Беларусь]

Дополнительная информация

В oтличие oт бoльшинства пoгoдных сайтoв мы публикуем пoдрoбную метеoинфoрмацию в детальнoм прoфессиoнальнoм фoрмате.

Характеристики температуры и влажнoсти вoздуха измеряются на высoте 2 м в тени вдали oт зданий и деревьев.
Скoрoсть ветра измеряется на высoте 10 м (на урoвне рoста челoвека скoрoсть ветра ниже в 1.5-2 раза). Если метеoстанция нахoдится в гoрoде или в лесу, тo скoрoсть ветра занижена на 2-4 м/с пo сравнению с oткрытым местoм. Скoрoсть ветра над акватoриями крупных рек и oзёр, а также на вершинах хoлмoв на 2-5 м/с выше, чем в oбычных услoвиях.
Атмoсфернoе давление в разных тoчках местнoсти мoжет значительнo oтличаться oт давления на метеoстанции, в зависимoсти oт услoвий рельефа (при пoдъёме на 10 м давление пoнижается примернo на 1 мм рт.ст.).